Weather observations for the past three days for
Nashua - Boire Field Airport
Imperial (Metric)
Date Time (edt) Wind (mph) Vis. (mi.) Weather Sky Cond. Temperature (ºF) Relative Humidity Wind Chill (°F) Heat Index (°F) Pressure Precipitation (in)
Air Dwpt 6 hour altimeter (in) sea level (mb) 1 hr 3 hr 6 hr
Max. Min.
13 02:56 W 3 10.00 Fair CLR 55.9 55.9 100% 29.98 1015.5
13 01:56 Calm 10.00 Fair CLR 57.9 57.9 72 57.9 100% 29.97 1015.3
13 00:56 Calm 10.00 A Few Clouds FEW050 62.1 59 90% 29.98 1015.6
12 23:56 NW 3 10.00 Partly Cloudy FEW050 SCT060 64 60.1 87% 29.99 1016.1
12 22:56 W 6 10.00 Fair CLR 66 61 84% 29.98 1015.6
12 21:56 SW 3 10.00 Mostly Cloudy BKN060 66 64 93% 29.97 1015.1
12 20:56 Calm 10.00 Partly Cloudy SCT090 68 63 84% 29.95 1014.5
12 19:56 SE 6 10.00 Overcast SCT055 OVC100 72 59 80.1 72 64% 29.94 1014.2
12 18:56 SE 5 10.00 A Few Clouds FEW100 73.9 60.1 62% 29.94 1014.0
12 17:56 Calm 10.00 Mostly Cloudy BKN095 77 55.9 48% 79 29.93 1013.9
12 16:56 E 9 10.00 Overcast OVC070 77 60.1 56% 79 29.94 1014.1
12 15:56 Vrbl 3 10.00 Mostly Cloudy BKN050 BKN110 78.1 55.9 47% 79 29.95 1014.3
12 14:56 Vrbl 3 10.00 Mostly Cloudy SCT050 BKN100 77 55.9 48% 79 29.96 1014.8
12 13:56 W 5 10.00 Mostly Cloudy FEW030 SCT043 BKN090 73 59 77 66 62% 29.97 1015.3
12 12:56 Vrbl 5 10.00 Overcast OVC095 73.9 57.9 57% 29.98 1015.6
12 11:56 W 3 10.00 Overcast SCT041 OVC100 75 55.9 52% 78 29.98 1015.6
12 10:56 Calm 10.00 Partly Cloudy SCT035 73 59 62% 29.99 1015.9
12 09:56 Calm 10.00 Mostly Cloudy BKN027 72 61 68% 30 1016.2
12 08:56 Vrbl 5 10.00 Partly Cloudy SCT095 69.1 61 76% 30.01 1016.5
12 07:56 NW 6 10.00 Mostly Cloudy BKN095 66 61 66 59 84% 30 1016.3
12 06:56 NW 3 10.00 Partly Cloudy SCT095 61 61 100% 29.99 1016.0
12 05:56 NW 5 10.00 Overcast OVC070 60.1 60.1 100% 29.99 1016.0
12 04:56 NW 3 10.00 Overcast OVC095 59 0 0% 29.98 1015.7
12 03:56 NW 3 10.00 Overcast OVC095 59 0 0% 29.98 1015.6
12 02:56 Calm 10.00 Overcast OVC095 60.8 0 0% 29.98 1015.6
12 01:56 Calm 10.00 Overcast OVC095 59 0 66.9 59 0% 29.98 1015.5
12 00:56 Calm 10.00 Overcast OVC095 60.8 0 0% 29.98 1015.5
11 23:56 NW 5 10.00 Overcast OVC095 62.1 62.1 100% 29.98 1015.6
11 22:56 NW 3 10.00 Overcast OVC095 63 63 100% 29.97 1015.3
11 21:56 Calm 10.00 Overcast OVC100 63 63 100% 29.96 1015.1
11 20:56 Calm 10.00 Mostly Cloudy SCT040 BKN070 BKN100 64 63 96% 29.95 1014.5
11 19:56 Calm 10.00 Mostly Cloudy SCT040 BKN070 BKN100 66.9 62.1 72 66.9 84% 29.94 1014.3
11 18:56 Calm 10.00 Mostly Cloudy SCT040 BKN070 BKN090 69.1 57 66% 29.93 1013.8
11 17:56 Calm 10.00 Overcast SCT040 BKN070 OVC085 69.1 55.9 63% 29.92 1013.6
11 16:56 Calm 10.00 Mostly Cloudy SCT040 BKN070 BKN085 70 55 59% 29.92 1013.6
11 15:56 W 5 10.00 Overcast BKN040 OVC080 70 55 59% 29.92 1013.4
11 14:56 Vrbl 3 10.00 Overcast BKN040 OVC070 71.1 55 57% 29.92 1013.5
11 13:56 Vrbl 3 10.00 Overcast BKN060 OVC070 70 55 71.1 61 59% 29.92 1013.5
11 12:56 NE 3 10.00 Overcast SCT036 BKN046 OVC070 70 54 57% 29.91 1013.2
11 11:56 W 6 10.00 Mostly Cloudy SCT030 BKN050 71.1 53.1 53% 29.9 1012.9
11 10:56 Vrbl 3 10.00 Mostly Cloudy BKN034 BKN046 68 53.1 59% 29.9 1012.9
11 09:56 N 6 10.00 Mostly Cloudy SCT029 BKN041 66.9 54 63% 29.91 1013.1
11 08:56 NW 9 10.00 Partly Cloudy SCT024 64 54 70% 29.89 1012.7
11 07:56 NW 8 10.00 Fair CLR 61 55.9 61 50 84% 29.88 1012.2
11 06:56 NW 5 10.00 Fair CLR 57 57 100% 29.87 1011.7
11 05:56 NW 3 10.00 Fair CLR 51.8 0 0% 29.85 1011.2
11 04:56 Calm 10.00 Fair CLR 50 0 0% 29.84 1010.7
11 03:56 Calm 10.00 Fair CLR 51.8 0 0% 29.81 1009.9
11 02:56 Calm 10.00 Fair CLR 52 52 100% 29.8 1009.6
11 01:56 Calm 10.00 Fair CLR 54 54 66 54 100% 29.8 1009.5
11 00:56 NW 5 10.00 Fair CLR 55 55 100% 29.79 1009.1
10 23:56 W 3 10.00 Partly Cloudy SCT044 57.9 57 97% 29.77 1008.5
10 22:56 Calm 10.00 Mostly Cloudy BKN048 59 57 93% 29.74 1007.6
10 21:56 SW 3 10.00 A Few Clouds FEW085 60.1 57 90% 29.72 1006.8
10 20:56 W 3 10.00 Partly Cloudy SCT085 63 55 76% 29.7 1006.1
10 19:56 W 8 G 17 10.00 Partly Cloudy SCT075 66 53.1 75 66 63% 29.67 1005.2
10 18:56 W 9 G 16 10.00 Partly Cloudy SCT060 SCT090 70 53.1 55% 29.66 1004.6
10 17:56 W 10 G 14 10.00 Mostly Cloudy BKN060 BKN085 71.1 53.1 53% 29.63 1003.8
10 16:56 W 12 G 22 10.00 Mostly Cloudy BKN060 BKN065 73.9 53.1 48% 29.61 1003.2
10 15:56 W 10 10.00 Mostly Cloudy BKN060 BKN085 72 52 50% 29.59 1002.3
10 14:56 W 7 10.00 Mostly Cloudy BKN060 BKN075 BKN090 72 53.1 52% 29.58 1002.1
10 13:56 W 9 10.00 Mostly Cloudy SCT060 BKN080 73.9 52 73.9 63 46% 29.57 1001.7
10 12:56 Calm 10.00 Partly Cloudy SCT050 SCT075 72 51.1 48% 29.57 1001.6
10 11:56 NW 13 G 17 10.00 Partly Cloudy SCT047 72 51.1 48% 29.57 1001.6
10 10:56 W 6 10.00 Mostly Cloudy BKN041 70 52 53% 29.57 1001.7
10 09:56 Vrbl 7 10.00 Fair CLR 68 52 57% 29.57 1001.6
10 08:56 NW 7 10.00 Fair CLR 64.9 52 63% 29.57 1001.7
10 07:56 Vrbl 6 10.00 Fair CLR 63 54 63 52 73% 29.57 1001.6
10 06:56 SW 5 10.00 Fair CLR 57.9 55 90% 29.56 1001.4
10 05:56 Vrbl 3 10.00 Fair CLR 54 54 100% 29.55 1001.0
10 04:56 SW 3 10.00 Fair CLR 53.1 53.1 100% 29.54 1000.6
10 03:56 W 5 10.00 Fair CLR 54 54 100% 29.53 1000.6
Date Time (edt) Wind (mph) Vis. (mi.) Weather Sky Cond. Air Dwpt Max. Min. Relative Humidity Wind Chill (°F) Heat Index (°F) altimeter (in) sea level (mb) 1 hr 3 hr 6 hr
6 hour
Temperature (ºF) Pressure Precipitation (in)